www.pogodaiklimat.ru

АРХИВ ПОГОДЫ в Чадроне

Время (UTC), дата Ветер
(напр.,м/с)
 
Видим.   Явления Облачность Т
(С)
Тd
(С)
f
(%)
Тe
(С)
Тes
(С)
Комфортность

P
(гПа)

Po
(гПа)
Тmin
(С)
Tmax
(С)
R
(мм)
SD
(см)
23:03 14.06   16 км  слабый дождь  10/0 2100 м
[средняя] 
+21.1  +13.3  61  +23  +25  комфорт    893.2         
23:53 14.06 Ю  16 км    8/0 3300 м
[средняя] 
+19.4  +13.9  70  +21  +22  комфорт  1007.2  893.8         
00:25 15.06 ЮЗ  16 км  гроза, слабый дождь  10/0 2100 м
[средняя] 
+18.3  +13.3  73  +18  +19      894.4         
00:51 15.06 З  13 км  гроза со слабым дождем  10/0 2700 м
[средняя] 
+18.0  +14.0  77  +17  +17      895.0         
00:53 15.06 З  11 км  гроза со слабым дождем  10/0 2700 м
[средняя] 
+17.8  +13.3  75  +17  +17    1008.4  895.0         
01:06 15.06 З  6
{10} 
8 км  дождь  10/5 1950 м
[средняя] 
+17.2  +12.8  75  +16  +16      895.3         
01:53 15.06 З  16 км  слабый дождь  10/0 3000 м
[средняя] 
+16.7  +13.9  84  +16  +16    1007.4  894.4      3.3   
02:53 15.06 З  4
{8} 
16 км    ясно  +16.7  +13.3  80  +16  +16    1007.6  894.7         
03:53 15.06 СВ  16 км    ясно  +15.6  +13.3  86  +15  +15    1007.9  895.0         
04:53 15.06 Ю  16 км    8/0 3600 м
[средняя] 
+15.0  +13.3  90  +14  +14    1008.7  895.9  +15.0  +21.1  3.3   
05:53 15.06 ЮЗ  16 км    2/0 3300 м
[средняя] 
+13.3  +12.2  93  +12  +12    1008.8  895.9         
06:53 15.06 Ю  16 км    2/0 3300 м
[средняя] 
+13.3  +12.2  93  +13  +13    1008.6  895.6         
07:53 15.06 ЮЗ  16 км    2/0 3600 м
[средняя] 
+12.8  +11.7  93  +11  +11    1008.8  895.9         
08:53 15.06 ЮЗ  16 км    ясно  +12.2  +10.6  90  +10  +10    1009.4  896.2         
09:53 15.06 ЮЗ  16 км    ясно  +12.2  +10.6  90  +11  +11    1010.8  897.1         
10:53 15.06   16 км    ясно  +13.3  +11.1  87  +13  +13    1012.0  898.0  +11.7  +15.6     
11:53 15.06 З  16 км    2/2 1800 м  +15.0  +12.2  83  +14  +15    1012.6  898.6         
12:53 15.06 З  16 км    ясно  +17.2  +12.8  75  +17  +18    1012.9  898.9         
13:53 15.06 З  16 км    ясно  +19.4  +13.3  68  +21  +25  комфорт  1013.1  899.2         
14:53 15.06 З  16 км    ясно  +20.6  +12.2  59  +23  +30  комфорт  1012.9  899.2         
15:53 15.06 З  16 км    ясно  +22.2  +12.2  53  +25  +32  комфорт  1013.0  899.2         
16:53 15.06 СЗ  7
{9} 
16 км    ясно  +22.8  +12.2  51  +25  +29  комфорт  1013.1  899.2  +13.3  +22.8     
17:53 15.06 СЗ  6
{10} 
16 км    ясно  +23.9  +11.7  46  +25  +31  комфорт  1012.9  899.2         
18:53 15.06 СЗ  8
{10} 
16 км    ясно  +24.4  +11.1  43  +26  +28  жарко  1012.6  898.9         
19:53 15.06 СЗ  7
{11} 
16 км    ясно  +24.4  +10.6  42  +26  +29  жарко  1012.3  898.6         
20:53 15.06 СЗ  7
{11} 
16 км    ясно  +25.0  +10.6  40  +26  +29  жарко  1012.0  898.3         
21:53 15.06 СЗ  6
{9} 
16 км    ясно  +25.0  +10.0  39  +26  +30  жарко  1011.8  898.3         
22:53 15.06 нст  16 км    ясно  +25.6  +10.6  39  +27  +33  жарко  1011.4  898.0  +22.8  +25.6     
23:53 15.06 СВ  16 км    ясно  +23.3  +12.8  52  +26  +28  жарко  1011.8  898.3         
00:53 16.06 СВ  16 км    ясно  +20.6  +12.8  61  +23  +24  комфорт  1012.5  898.9         
01:53 16.06 В  16 км    ясно  +16.7  +12.2  75  +16  +17    1013.0  899.2         
02:53 16.06 ЮВ  16 км    ясно  +15.0  +11.7  81  +14  +14    1013.9  899.8         
03:53 16.06 СВ  16 км    ясно  +13.3  +11.1  87  +12  +12    1014.0  899.8         
04:53 16.06 С  16 км    ясно  +13.9  +11.7  87  +14  +14    1013.9  899.8  +13.3  +25.6     
05:53 16.06   16 км    5/0 2250 м
[средняя] 
+13.9  +12.2  89  +13  +13    1013.3  899.5         
06:40 16.06 З  16 км  гроза  8/0 2100 м
[средняя] 
+14.4  +12.2  87  +13  +13      899.8         
06:53 16.06 С  16 км    10/0 2100 м
[средняя] 
+14.4  +12.8  90  +13  +13    1013.6  899.8         
07:53 16.06 нст  16 км    8/0 2700 м
[средняя] 
+13.9  +12.2  89  +14  +14    1013.0  899.2      0.8   
08:53 16.06 СЗ  16 км    10/8 1800 м
[средняя] 
+13.3  +12.2  93  +12  +12    1014.0  900.1         
09:53 16.06 ЮЗ  16 км    8/0 2550 м
[средняя] 
+14.4  +12.2  87  +13  +13    1013.9  900.4         
10:53 16.06 ЮЗ  16 км  слабый дождь  10/10 1800 м  +14.4  +12.2  87  +13  +13    1014.5  900.7  +12.8  +15.0  1.0   
11:53 16.06 Ю  16 км  слабый дождь  10/0 2400 м
[средняя] 
+14.4  +12.2  87  +13  +13    1015.1  901.0         
12:53 16.06 ЮВ  16 км    8/0 3000 м
[средняя] 
+15.0  +12.8  87  +14  +15    1015.6  901.3         
13:53 16.06 Ю  16 км    8/2 810 м
[средняя] 
+15.6  +12.8  83  +15  +17    1016.3  901.6      2.3   
14:53 16.06 ЮВ  16 км    ясно  +16.7  +13.3  80  +16  +23    1015.7  901.0         
15:53 16.06 Ю  16 км    2/0 3300 м
[средняя] 
+20.0  +13.3  65  +22  +29  комфорт  1015.2  900.7         
16:53 16.06 Ю  16 км    2/0 3300 м
[средняя] 
+21.7  +13.9  61  +25  +37  комфорт  1014.6  900.4  +13.9  +21.7  2.3   
17:53 16.06     16 км    5/0 3000 м
[средняя] 
+22.2  +12.8  55  +25  +42  комфорт  1013.9  899.8         

 

Местоположение метеостанции Chadron Municipal Airport: широта 42.8375 долгота -103.0953 высота над уровнем моря 1005 м.

В архиве по умолчанию представлена погода в Чадроне за последние 1-2 суток. Обновление информации о фактической погоде в базе происходит ежечасно! Архивные данные за месяц целиком и за предыдущие месяцы Вы можете получить, выбрав интересующий диапазон дат из раскрывающегося списка и нажав кнопку "Ввод!".

Внимание! Архив погоды МЕТАР в базе сайта в настоящее время начинается c 1 января 2011 г. Нет смысла пытаться выбрать более раннюю дату.

Внимание! Время в таблицах - всемирное. Для получения местного времени необходимо прибавить поправку, которая в Чадроне равна -7 ч.

Ветер - указаны скорость ветра в м/с и направление, откуда дует ветер: С - северный, СВ - северо-восточный, В - восточный, ЮВ - юго-восточный, Ю - южный, ЮЗ - юго-западный, З - западный, СЗ - северо-западный.
Видимость - горизонтальная дальность видимости в метрах или километрах. При видимости от 1 до 10 км при отсутствии осадков обычно наблюдается дымка, при ухудшении видимости до 1 км и менее - туман. В сухую погоду видимость может ухудшаться дымом, пылью или мглою.
Атмосферные явления - указаны явления, наблюдавшиеся в указанный момент времени.
Облачность - указаны через наклонную черту верхняя и нижняя облачность в баллах и высота нижней границы облаков в метрах. Внимание: облачность, как и прочие метеорологические величины в США измеряются автоматическими метеостанциями. Указанные значения в баллах носят условный характер и показывают процент времени, в течение которого, в среднем, лазерный луч высотомера отражался от облаков обратно.
T - Температура воздуха - температура, измеренная на высоте 2 м над землей.
Td - Температура точки росы - температура, при понижении до которой содержащийся в воздухе водяной пар достигнет насыщения.
f - Относительная влажность воздуха - влажноcть воздуха, измеренная на высоте 2 м над землей.
Te - Эффективная температура - температура, которую ощущает одетый по сезону человек в тени. Характеристика душности погоды. При расчете учитывается влияние влажности воздуха и скорости ветра на теплоощущения человека.
Tes - Эффективная температура на солнце - температура, которую ощущает человек, с поправкой на солнечный нагрев. Характеристика знойности погоды. Зависит от высоты солнца над горизонтом, облачности и скорости ветра. Ночью, в пасмурную погоду, а также при ветре 12 м/с и более поправка равна нулю.
P - Атмосферное давление - приведенное к уровню моря атмосферное давление.
Po - Атмосферное давление - измеренное на уровне метеостанции атмосферное давление.
Tmin - Минимальная температура - минимум температуры воздуха на высоте 2 м над землей.
Tmax - Максимальная температура - максимум температуры воздуха на высоте 2 м над землей.
R - Количество осадков - Количество выпавших осадков за 3 или 6 часов, мм.
SD - Снежный покров - Высота снежного покрова, см.